Flag for China Weather past 2 weeks in Lanzhou, Gansu, China

Now
57 °F

Passing clouds.


Feels Like: 56 °F
Forecast: 35 / 65 °F
Wind: 6 mph from Southeast

Location: Lanzhou / Zhongchuan

Current Time: Apr 21, 2015 at 6:37:35 PM

Latest Report: Apr 21, 2015 at 6:00 PM


Visibility: N/A

Pressure: 30.18 "Hg

Humidity: 27%

Dew point: 23 °F

Location of LanzhouLocation

Historic Weather in Lanzhou — Graph

°F

Lanzhou temperature yesterday

Maximum temperature yesterday: 52 °F (at 11:00 AM)
Minimum temperature yesterday: 36 °F (at 5:00 AM)
Average temperature yesterday: 43 °F

Past Weeks' High & Low Weather Summary

 TemperatureHumidityPressure
High73 °F (Apr 15, 3:00 PM)100% (Apr 21, 3:00 AM)30.51 "Hg (Apr 21, 3:00 AM)
Low27 °F (Apr 13, 4:00 AM)10% (Apr 15, 5:00 PM)29.74 "Hg (Apr 17, 5:00 AM)
Average47 °F52%30.15 "Hg
* Reported Apr 6 5:00 PM — Apr 21 5:00 PM, Lanzhou, Weather by CustomWeather, © 2015

Note: Actual official high and low records may vary slightly from our data, if they occured in-between our weather recording intervals... More about our weather records

Advertising

Lanzhou weather history for previous 24 hours

 ConditionsComfort  
Time TempWeatherWind HumidityBarometerVisibility
5:00 PM
Tue, Apr 21
57 °FPassing clouds.6 mph25%30.18 "HgN/A
4:00 PM59 °FPassing clouds.6 mph27%30.18 "HgN/A
3:00 PM57 °FPassing clouds.6 mph27%30.21 "HgN/A
2:00 PM55 °FPassing clouds.8 mph38%30.24 "HgN/A
1:00 PM54 °FPassing clouds.6 mph41%30.27 "HgN/A
12:00 PM50 °FPassing clouds.10 mph54%30.30 "HgN/A
11:00 AM46 °FPassing clouds.8 mph66%30.33 "HgN/A
10:00 AM41 °FFog.8 mph87%30.33 "Hg2 mi
9:00 AM36 °FFog.1 mph93%30.33 "Hg1 mi
8:00 AM34 °FFog.1 mph100%30.30 "Hg1 mi
7:00 AM34 °FFog.3 mph93%30.30 "Hg0 mi
6:00 AM34 °FFog.3 mph93%30.30 "Hg0 mi
5:00 AM34 °FFog.6 mph100%30.27 "Hg0 mi
4:00 AM34 °FFog.6 mph93%30.27 "Hg0 mi
3:00 AM34 °FFog.1 mph100%30.27 "Hg1 mi
2:00 AM37 °FFog.3 mph93%30.30 "Hg1 mi
1:00 AM36 °FClear.1 mph93%30.27 "Hg4 mi
12:00 AM39 °FFog.3 mph81%30.30 "Hg3 mi
11:00 PM
Mon, Apr 20
41 °FFog.3 mph81%30.30 "Hg3 mi
10:00 PM39 °FPassing clouds.3 mph81%30.27 "HgN/A
9:00 PM41 °FPassing clouds.3 mph76%30.24 "HgN/A
8:00 PM45 °FScattered clouds.15 mph61%30.21 "Hg4 mi
7:00 PM43 °FScattered clouds.1 mph81%30.15 "Hg4 mi
6:00 PM45 °FPassing clouds.3 mph76%30.12 "HgN/A
Weather by CustomWeather, © 2015

See weather overviewHow to use our weather pages